Location: Asheville, NC
(35.6000°N, 82.5500°W)
Time: 19:39:31
(UTC-04:00)

PCSat - Pass Details

Date: 13 March 2018
Orbit: 784 x 796 km, 67.0° (Epoch: 23 June)

Event Time Altitude Azimuth Distance (km) Brightness Sun altitude
Rises 06:48:19 0° 352° (N) 3,292 12.8 -12.1°
Reaches altitude 10° 06:52:20 10° 21° (NNE) 2,362 12.4 -11.3°
Maximum altitude 06:54:37 13° 46° (NE) 2,182 12.6 -10.8°
Drops below altitude 10° 06:56:54 10° 71° (ENE) 2,360 13.4 -10.4°
Sets 07:00:52 0° 100° (E) 3,287 14.6 -9.5°
